{"data":{"norad_id":55667,"epoch":"2026-09-20T14:29:10.143168Z","epoch_age_seconds":94119,"freshness":"FRESH","line1":"1 55667U 23021AR  26263.60358962  .00000506  00000+0  50205-4 0  9991","line2":"2 55667  70.0009  32.8926 0003151 277.5680  82.5121 14.98330617198472","mean_motion":14.98330617,"eccentricity":0.0003151,"inclination_deg":70.0009,"raan_deg":32.8926,"arg_perigee_deg":277.568,"mean_anomaly_deg":82.5121,"bstar":5.0205e-5,"rev_number":19847,"period_min":96.106959549636,"perigee_km":569.86397774475,"apogee_km":574.24398810219,"semimajor_km":6950.1909829235,"source":"CELESTRAK","updated_at":"2026-09-21T09:00:33.309059Z"}}